1515596400.58,51370,11.94,73142.3,-4.09,-16.51,-17.25,0,*5F
1515596401.84,51371,11.94,73142.8,-4.09,-16.51,-17.25,0,*5E
1515596403.08,51372,11.94,73140.5,-4.09,-16.51,-17.35,0,*5C
1515596404.34,51373,11.94,73146.8,-4.11,-16.45,-17.25,0,*50
1515596405.61,51374,11.94,73148.5,-4.11,-16.55,-17.25,0,*56
1515596406.87,51375,11.94,73146.0,-4.11,-16.37,-17.25,0,*53
1515596408.15,51376,11.94,73144.3,-4.11,-16.51,-17.25,0,*50
1515596409.41,51377,11.94,73146.0,-4.11,-16.45,-17.21,0,*50
1515596410.67,51378,11.94,73144.8,-4.11,-16.37,-17.25,0,*5E
1515596411.93,51379,11.94,73146.0,-4.11,-16.45,-17.25,0,*5A
1515596413.19,51380,11.94,73148.0,-4.11,-16.45,-17.21,0,*58
1515596414.45,51381,11.94,73144.3,-4.11,-16.45,-17.21,0,*59
1515596415.71,51382,11.94,73144.5,-4.09,-16.51,-17.21,0,*56
1515596416.97,51383,11.88,73136.8,-4.09,-16.51,-17.21,0,*57
1515596418.26,51384,11.94,73144.3,-4.11,-16.51,-17.21,0,*59
1515596419.55,51385,11.94,73144.3,-4.11,-16.51,-17.21,0,*58
1515596420.81,51386,11.94,73140.3,-4.11,-16.37,-17.11,0,*58
1515596422.07,51387,11.94,73140.8,-4.11,-16.45,-17.21,0,*5F
1515596423.34,51388,11.94,73144.5,-4.11,-16.45,-17.11,0,*53
1515596424.57,51389,11.94,73142.3,-4.11,-16.37,-16.97,0,*58
1515596425.81,51390,11.94,73144.5,-4.11,-16.37,-16.93,0,*54
1515596427.04,51391,11.94,73148.0,-4.11,-16.37,-16.93,0,*55
1515596428.25,51392,11.94,73144.0,-4.09,-16.37,-16.79,0,*5B
1515596429.51,51393,11.94,73144.0,-4.11,-16.37,-16.69,0,*52
1515596430.77,51394,11.94,73140.3,-4.09,-16.31,-16.65,0,*56
1515596432.03,51395,11.94,73146.0,-4.11,-16.31,-16.55,0,*5D
1515596433.28,51396,11.94,73142.3,-4.11,-16.23,-16.45,0,*5C
1515596434.53,51397,11.94,73142.3,-4.11,-16.31,-16.45,0,*5E
1515596435.79,51398,11.88,73142.5,-4.11,-16.23,-16.37,0,*57
1515596437.02,51399,11.94,73146.5,-4.09,-16.31,-16.37,0,*5C
1515596438.28,51400,11.94,73148.8,-4.09,-16.31,-16.31,0,*5D
1515596439.54,51401,11.94,73142.8,-4.13,-16.23,-16.23,0,*57
1515596440.81,51402,11.94,73142.3,-4.13,-16.17,-16.23,0,*53
1515596442.08,51403,11.94,73142.8,-4.13,-16.17,-16.23,0,*52
1515596443.34,51404,11.94,73144.3,-4.11,-16.09,-16.37,0,*5D
1515596444.6,51405,11.94,73142.3,-4.11,-16.09,-16.37,0,*5C
1515596445.86,51406,11.94,73140.0,-4.11,-16.31,-16.45,0,*51
1515596447.14,51407,11.94,73138.3,-4.11,-16.23,-16.51,0,*56
1515596448.38,51408,11.94,73140.5,-4.13,-16.31,-16.55,0,*5C
1515596449.64,51409,11.94,73142.0,-4.13,-16.31,-16.69,0,*52
1515596450.88,51410,11.94,73142.0,-4.13,-16.31,-16.79,0,*5B
1515596452.11,51411,11.94,73138.5,-4.13,-16.31,-16.93,0,*5E
1515596453.33,51412,11.88,73140.8,-4.13,-16.37,-16.97,0,*5F
1515596454.58,51413,11.94,73146.8,-4.13,-16.41,-17.11,0,*50
1515596455.82,51414,11.94,73144.5,-4.13,-16.37,-17.11,0,*56
1515596457.09,51415,11.94,73146.0,-4.15,-16.41,-17.25,0,*57
1515596458.33,51416,11.94,73148.0,-4.13,-16.37,-17.11,0,*54
1515596459.57,51417,11.94,73144.3,-4.13,-16.45,-17.25,0,*57
1515596460.82,51418,11.94,73144.0,-4.13,-16.37,-17.21,0,*59
1515596462.04,51419,11.94,73146.0,-4.13,-16.45,-17.35,0,*58
1515596463.29,51420,11.94,73142.5,-4.13,-16.41,-17.41,0,*55
1515596464.55,51421,11.94,73140.3,-4.15,-16.51,-17.31,0,*54
1515596465.81,51422,11.94,73142.5,-4.11,-16.45,-17.25,0,*53
1515596467.05,51423,11.94,73140.8,-4.13,-16.37,-17.25,0,*55
1515596468.29,51424,11.94,73144.0,-4.13,-16.45,-17.25,0,*57
1515596469.53,51425,11.94,73148.0,-4.13,-16.37,-17.25,0,*53
1515596470.77,51426,11.94,73144.8,-4.13,-16.37,-17.25,0,*50
1515596472.01,51427,11.94,73144.0,-4.13,-16.37,-17.25,0,*51
1515596473.25,51428,11.94,73138.5,-4.13,-16.37,-17.25,0,*5E
1515596474.54,51429,11.94,73144.3,-4.15,-16.51,-17.25,0,*59
1515596475.83,51430,11.94,73140.0,-4.15,-16.51,-17.17,0,*50
1515596477.09,51431,11.94,73142.0,-4.15,-16.41,-17.25,0,*51
1515596478.36,51432,11.94,73140.3,-4.15,-16.41,-17.25,0,*52
1515596479.62,51433,11.94,73140.5,-4.15,-16.37,-17.25,0,*52
1515596480.89,51434,11.94,73142.8,-4.15,-16.37,-17.17,0,*54
1515596482.15,51435,11.94,73144.5,-4.13,-16.31,-17.21,0,*50
1515596483.42,51436,11.94,73144.8,-4.15,-16.37,-17.25,0,*57
1515596484.65,51437,11.94,73142.8,-4.15,-16.37,-17.31,0,*53
1515596485.92,51438,11.94,73140.3,-4.15,-16.37,-17.41,0,*5B
1515596487.14,51439,11.94,73144.3,-4.13,-16.37,-17.31,0,*5B
1515596488.41,51440,11.94,73146.8,-4.15,-16.41,-17.41,0,*55
1515596489.68,51441,11.88,73140.0,-4.15,-16.41,-17.41,0,*54
1515596490.92,51442,11.94,73142.5,-4.15,-16.41,-17.31,0,*50
1515596492.16,51443,11.94,73140.0,-4.15,-16.37,-17.31,0,*50
1515596493.4,51444,11.94,73144.5,-4.13,-16.31,-17.35,0,*53
1515596494.69,51445,11.94,73144.3,-4.15,-16.27,-17.25,0,*52
1515596495.92,51446,11.94,73150.8,-4.15,-16.37,-17.31,0,*55
1515596497.19,51447,11.94,73146.8,-4.15,-16.37,-17.25,0,*51
1515596498.45,51448,11.94,73142.5,-4.15,-16.37,-17.25,0,*5E
1515596499.72,51449,11.94,73142.0,-4.15,-16.37,-17.25,0,*5F
1515596500.98,51450,11.94,73144.5,-4.15,-16.37,-17.25,0,*57
1515596502.25,51451,11.94,73142.0,-4.15,-16.37,-17.17,0,*57
1515596503.51,51452,11.94,73144.5,-4.15,-16.27,-17.31,0,*51
1515596504.74,51453,11.94,73144.0,-4.15,-16.37,-17.31,0,*51
1515596506.01,51454,11.94,73140.3,-4.15,-16.37,-17.25,0,*53
1515596507.25,51455,11.94,73146.3,-4.15,-16.37,-17.31,0,*57
1515596508.53,51456,11.94,73150.0,-4.15,-16.27,-17.25,0,*50
1515596509.77,51457,11.94,73146.5,-4.17,-16.37,-17.17,0,*53
1515596511.01,51458,11.94,73142.3,-4.17,-16.37,-17.25,0,*5D
1515596512.27,51459,11.94,73142.0,-4.17,-16.31,-17.25,0,*5A
1515596513.54,51460,11.94,73140.3,-4.17,-16.27,-17.17,0,*56
1515596514.78,51461,11.94,73144.3,-4.17,-16.37,-17.17,0,*56
1515596516.04,51462,11.94,73144.0,-4.17,-16.27,-17.25,0,*55
1515596517.31,51463,11.94,73146.5,-4.17,-16.27,-17.25,0,*54
1515596518.55,51464,11.94,73142.3,-4.17,-16.37,-17.17,0,*53
1515596519.79,51465,11.94,73140.5,-4.19,-16.41,-17.31,0,*59
1515596521.07,51466,11.94,73144.3,-4.19,-16.31,-17.21,0,*5C
1515596522.34,51467,11.94,73146.0,-4.17,-16.27,-17.17,0,*51
1515596523.58,51468,11.94,73148.3,-4.17,-16.37,-17.25,0,*5E
1515596524.82,51469,11.94,73148.0,-4.17,-16.37,-17.17,0,*5E
1515596526.09,51470,11.94,73140.0,-4.17,-16.27,-17.11,0,*51
1515596527.35,51471,11.94,73136.8,-4.17,-16.27,-17.11,0,*50
1515596528.62,51472,11.94,73134.8,-4.17,-16.27,-17.11,0,*53
1515596529.89,51473,11.94,73136.0,-4.17,-16.27,-17.11,0,*52
1515596531.15,51474,11.94,73144.5,-4.17,-16.23,-17.11,0,*51
1515596532.44,51475,11.94,73144.3,-4.19,-16.27,-17.17,0,*5C
1515596533.73,51476,11.94,73140.5,-4.19,-16.27,-17.17,0,*5F
1515596535.02,51477,11.94,73142.8,-4.19,-16.31,-17.07,0,*58
1515596536.29,51478,11.88,73140.0,-4.17,-16.27,-17.03,0,*5A
1515596537.58,51479,11.94,73144.3,-4.19,-16.31,-17.07,0,*56
1515596538.85,51480,11.94,73140.0,-4.17,-16.31,-17.07,0,*5E
1515596540.15,51481,11.94,73138.3,-4.19,-16.31,-17.07,0,*51
1515596541.41,51482,11.94,73142.3,-4.17,-16.31,-17.11,0,*5B
1515596542.7,51483,11.94,73146.0,-4.19,-16.31,-17.07,0,*53
1515596543.97,51484,11.94,73146.0,-4.17,-16.31,-17.11,0,*5D
1515596545.25,51485,11.94,73142.8,-4.19,-16.31,-17.03,0,*51
1515596546.52,51486,11.94,73146.3,-4.17,-16.27,-17.11,0,*58
1515596547.81,51487,11.94,73144.3,-4.19,-16.31,-17.07,0,*57
1515596549.1,51488,11.94,73140.0,-4.19,-16.31,-17.03,0,*5C
1515596550.39,51489,11.94,73144.5,-4.19,-16.31,-17.03,0,*5D
1515596551.67,51490,11.94,73142.8,-4.19,-16.31,-17.03,0,*55
1515596552.96,51491,11.94,73142.8,-4.19,-16.31,-17.03,0,*54
1515596554.25,51492,11.94,73144.3,-4.19,-16.31,-17.03,0,*57
1515596555.51,51493,11.88,73142.0,-4.19,-16.27,-16.97,0,*5D
1515596556.8,51494,11.94,73144.8,-4.19,-16.27,-17.03,0,*56
1515596558.1,51495,11.94,73146.0,-4.19,-16.27,-17.03,0,*57
1515596559.39,51496,11.94,73142.5,-4.19,-16.17,-17.03,0,*57
1515596560.64,51497,11.94,73140.0,-4.19,-16.31,-16.93,0,*5A
1515596561.93,51498,11.94,73146.0,-4.19,-16.31,-17.03,0,*5D
1515596563.19,51499,11.94,73144.0,-4.19,-16.27,-16.93,0,*53
1515596564.48,51500,11.94,73140.5,-4.19,-16.27,-17.03,0,*5A
1515596565.77,51501,11.94,73142.5,-4.19,-16.27,-17.03,0,*5B
1515596567.03,51502,11.94,73146.5,-4.19,-16.27,-16.93,0,*50
1515596568.25,51503,11.94,73142.0,-4.21,-16.37,-16.97,0,*5F
1515596569.49,51504,11.94,73144.0,-4.21,-16.31,-16.97,0,*5E
1515596570.72,51505,11.94,73144.5,-4.21,-16.23,-16.93,0,*58
1515596571.98,51506,11.94,73146.0,-4.19,-16.27,-16.89,0,*5F
1515596573.25,51507,11.94,73142.5,-4.19,-16.17,-16.93,0,*56
1515596574.48,51508,11.94,73144.8,-4.21,-16.31,-16.97,0,*52
1515596575.72,51509,11.94,73144.0,-4.21,-16.31,-16.93,0,*57
1515596576.93,51510,11.94,73144.5,-4.21,-16.37,-16.97,0,*5D
1515596578.17,51511,11.94,73142.5,-4.21,-16.31,-16.97,0,*5A
1515596579.4,51512,11.94,73140.0,-4.21,-16.31,-16.93,0,*5D
1515596580.64,51513,11.94,73144.3,-4.21,-16.31,-16.83,0,*5D
1515596581.91,51514,11.94,73144.3,-4.19,-16.27,-16.79,0,*53
1515596583.17,51515,11.94,73142.5,-4.19,-16.27,-16.89,0,*5D
1515596584.44,51516,11.94,73146.8,-4.19,-16.27,-16.79,0,*51
1515596585.7,51517,11.94,73144.3,-4.19,-16.17,-16.89,0,*5C
1515596586.96,51518,11.88,73138.8,-4.19,-16.27,-16.89,0,*50
1515596588.22,51519,11.94,73142.5,-4.19,-16.27,-16.89,0,*51
1515596589.48,51520,11.94,73142.3,-4.19,-16.27,-16.89,0,*5B
1515596590.75,51521,11.94,73142.8,-4.19,-16.27,-16.79,0,*55
1515596591.99,51522,11.94,73142.3,-4.21,-16.31,-16.83,0,*5F
1515596593.25,51523,11.94,73142.3,-4.23,-16.23,-16.83,0,*5F
1515596594.49,51524,11.94,73144.8,-4.21,-16.31,-16.83,0,*59
1515596595.75,51525,11.94,73144.5,-4.19,-16.27,-16.79,0,*51
1515596597.02,51526,11.94,73140.8,-4.19,-16.27,-16.79,0,*52
1515596598.26,51527,11.94,73140.8,-4.21,-16.23,-16.83,0,*59
1515596599.5,51528,11.94,73140.8,-4.21,-16.31,-16.83,0,*55
1515596600.74,51529,11.94,73144.5,-4.21,-16.31,-16.83,0,*54
1515596601.97,51530,11.94,73144.3,-4.21,-16.31,-16.93,0,*5D
1515596603.21,51531,11.94,73144.0,-4.21,-16.31,-16.83,0,*5D
1515596604.45,51532,11.94,73144.0,-4.21,-16.31,-16.83,0,*5E
1515596605.72,51533,11.94,73148.0,-4.23,-16.23,-16.83,0,*5E
1515596606.98,51534,11.94,73146.3,-4.23,-16.23,-16.79,0,*5C
1515596608.22,51535,11.94,73146.0,-4.21,-16.31,-16.79,0,*5C
1515596609.46,51536,11.94,73146.3,-4.21,-16.23,-16.79,0,*5C
1515596610.72,51537,11.94,73144.5,-4.23,-16.23,-16.79,0,*5F
1515596611.96,51538,11.94,73140.8,-4.21,-16.31,-16.79,0,*51
1515596613.2,51539,11.94,73144.0,-4.21,-16.31,-16.79,0,*50
1515596614.47,51540,11.94,73146.8,-4.23,-16.37,-16.69,0,*5B
1515596615.73,51541,11.94,73146.0,-4.23,-16.23,-16.79,0,*5E
1515596616.99,51542,11.94,73146.3,-4.23,-16.31,-16.79,0,*5E
1515596618.23,51543,11.94,73150.8,-4.21,-16.31,-16.79,0,*5D
1515596619.49,51544,11.94,73142.5,-4.23,-16.31,-16.79,0,*58
1515596620.71,51545,11.94,73144.5,-4.21,-16.37,-16.83,0,*58
1515596621.99,51546,11.94,73146.3,-4.23,-16.31,-16.69,0,*5B
1515596623.23,51547,11.94,73146.3,-4.23,-16.37,-16.79,0,*5D
1515596624.49,51548,11.94,73150.3,-4.23,-16.31,-16.79,0,*54
1515596625.71,51549,11.94,73146.5,-4.21,-16.37,-16.79,0,*51
1515596626.97,51550,11.94,73150.8,-4.23,-16.37,-16.69,0,*5A
1515596628.21,51551,11.94,73152.0,-4.23,-16.37,-16.79,0,*5A
1515596629.48,51552,11.94,73144.0,-4.23,-16.37,-16.69,0,*58
1515596630.74,51553,11.94,73140.5,-4.23,-16.37,-16.69,0,*59
1515596631.96,51554,11.94,73142.0,-4.25,-16.41,-16.83,0,*5D
1515596633.2,51555,11.94,73142.0,-4.23,-16.37,-16.79,0,*5E
1515596634.44,51556,11.94,73146.8,-4.21,-16.37,-16.69,0,*5E
1515596635.71,51557,11.94,73144.8,-4.23,-16.45,-16.69,0,*58
1515596636.95,51558,11.94,73140.0,-4.23,-16.45,-16.79,0,*56
1515596638.18,51559,11.94,73140.3,-4.21,-16.31,-16.79,0,*56
1515596639.43,51560,11.94,73142.5,-4.21,-16.37,-16.69,0,*5B
1515596640.67,51561,11.94,73146.8,-4.21,-16.37,-16.69,0,*5A
1515596641.91,51562,11.94,73142.5,-4.23,-16.37,-16.79,0,*5A
1515596643.17,51563,11.94,73142.5,-4.23,-16.45,-16.69,0,*5F
1515596644.41,51564,11.94,73140.8,-4.23,-16.37,-16.79,0,*5C
1515596645.63,51565,11.94,73146.8,-4.21,-16.45,-16.79,0,*5A
1515596646.9,51566,11.94,73144.3,-4.23,-16.37,-16.69,0,*5F
1515596648.12,51567,11.94,73150.0,-4.21,-16.37,-16.79,0,*5D
1515596649.36,51568,11.94,73150.8,-4.23,-16.37,-16.79,0,*50
1515596650.6,51569,11.94,73150.8,-4.23,-16.45,-16.79,0,*54
1515596651.83,51570,11.94,73148.3,-4.25,-16.51,-16.83,0,*5A
1515596653.1,51571,11.94,73150.5,-4.27,-16.51,-16.75,0,*50
1515596654.37,51572,11.94,73150.0,-4.27,-16.51,-16.75,0,*53
1515596655.61,51573,11.94,73148.8,-4.25,-16.51,-16.83,0,*59
1515596656.86,51574,11.94,73146.0,-4.25,-16.51,-16.75,0,*57
1515596658.1,51575,11.94,73148.8,-4.25,-16.51,-16.75,0,*56
1515596659.34,51576,11.94,73146.8,-4.25,-16.51,-16.83,0,*5C
1515596660.58,51577,11.94,73146.0,-4.25,-16.51,-16.75,0,*54
1515596661.81,51578,11.94,73142.5,-4.25,-16.41,-16.75,0,*5A
1515596663.05,51579,11.94,73142.3,-4.25,-16.51,-16.75,0,*5A
1515596664.3,51580,11.94,73142.3,-4.27,-16.41,-16.75,0,*5F
1515596665.52,51581,11.94,73148.0,-4.25,-16.41,-16.75,0,*5C
1515596666.74,51582,11.94,73148.5,-4.25,-16.55,-16.83,0,*53
1515596667.96,51583,11.94,73148.0,-4.25,-16.41,-16.75,0,*5E
1515596669.19,51584,11.94,73146.5,-4.25,-16.41,-16.75,0,*59
1515596670.43,51585,11.94,73146.5,-4.25,-16.51,-16.75,0,*59
1515596671.72,51586,11.94,73146.3,-4.27,-16.51,-16.69,0,*55
1515596672.97,51587,11.94,73140.3,-4.27,-16.41,-16.75,0,*58
1515596674.23,51588,11.94,73136.8,-4.27,-16.51,-16.83,0,*5F
1515596675.45,51589,11.94,73142.0,-4.25,-16.55,-16.83,0,*58
1515596676.7,51590,11.94,73144.8,-4.25,-16.51,-16.75,0,*5D
1515596677.92,51591,11.94,73146.3,-4.25,-16.41,-16.75,0,*5D
1515596679.19,51592,11.94,73144.0,-4.27,-16.51,-16.75,0,*5D
1515596680.44,51593,11.94,73140.3,-4.27,-16.55,-16.75,0,*58
1515596681.69,51594,11.94,73140.3,-4.27,-16.55,-16.75,0,*5F
1515596682.93,51595,11.94,73138.0,-4.27,-16.41,-16.83,0,*52
1515596684.2,51596,11.94,73144.5,-4.27,-16.51,-16.75,0,*59
1515596685.44,51597,11.94,73140.3,-4.25,-16.51,-16.75,0,*5A
1515596686.71,51598,11.94,73142.5,-4.27,-16.51,-16.83,0,*5E
1515596687.98,51599,11.94,73144.0,-4.27,-16.51,-16.75,0,*56
1515596689.23,51600,11.94,73140.5,-4.27,-16.55,-16.75,0,*51
1515596690.5,51601,11.94,73144.0,-4.27,-16.51,-16.75,0,*54
1515596691.76,51602,11.94,73142.5,-4.27,-16.51,-16.75,0,*57
1515596693.01,51603,11.94,73140.5,-4.25,-16.51,-16.75,0,*54
1515596694.26,51604,11.94,73144.8,-4.27,-16.55,-16.75,0,*55
1515596695.5,51605,11.94,73146.3,-4.25,-16.51,-16.75,0,*52
1515596696.74,51606,11.94,73142.3,-4.25,-16.51,-16.75,0,*51
1515596698.01,51607,11.94,73144.0,-4.27,-16.51,-16.75,0,*52
1515596699.3,51608,11.94,73144.8,-4.27,-16.51,-16.69,0,*50
1515596700.57,51609,11.94,73148.0,-4.27,-16.51,-16.75,0,*5C
1515596701.79,51610,11.94,73148.5,-4.25,-16.55,-16.75,0,*52
1515596703.06,51611,11.94,73146.0,-4.27,-16.51,-16.75,0,*55
1515596704.33,51612,11.94,73150.3,-4.27,-16.65,-16.75,0,*51
1515596705.58,51613,11.94,73148.5,-4.27,-16.55,-16.75,0,*53
1515596706.85,51614,11.94,73154.0,-4.27,-16.55,-16.69,0,*59
1515596708.12,51615,11.94,73148.0,-4.27,-16.55,-16.69,0,*58
1515596709.37,51616,11.94,73144.8,-4.27,-16.55,-16.75,0,*56
1515596710.62,51617,11.94,73142.3,-4.27,-16.55,-16.75,0,*57
1515596711.87,51618,11.94,73150.0,-4.27,-16.55,-16.75,0,*58
1515596713.12,51619,11.94,73150.0,-4.27,-16.55,-16.75,0,*59
1515596714.36,51620,11.94,73144.8,-4.27,-16.55,-16.75,0,*53
1515596715.59,51621,11.94,73146.5,-4.29,-16.55,-16.75,0,*5C
1515596716.82,51622,11.94,73148.5,-4.29,-16.59,-16.75,0,*53
1515596718.1,51623,11.94,73150.5,-4.27,-16.51,-16.65,0,*55
1515596719.37,51624,11.94,73148.5,-4.27,-16.55,-16.69,0,*5A
1515596720.62,51625,11.94,73154.0,-4.25,-16.51,-16.75,0,*50
1515596721.84,51626,11.94,73150.3,-4.29,-16.55,-16.79,0,*57
1515596723.09,51627,11.94,73148.0,-4.27,-16.55,-16.75,0,*54
1515596724.36,51628,11.94,73150.3,-4.27,-16.65,-16.83,0,*51
1515596725.61,51629,11.94,73148.8,-4.27,-16.55,-16.75,0,*5A
1515596726.86,51630,11.94,73150.0,-4.27,-16.55,-16.75,0,*52
1515596728.08,51631,11.94,73150.5,-4.29,-16.59,-16.79,0,*5D
1515596729.3,51632,11.94,73150.0,-4.29,-16.59,-16.79,0,*5E
1515596730.54,51633,11.88,73146.8,-4.33,-16.69,-16.79,0,*57
1515596731.78,51634,11.94,73150.3,-4.29,-16.69,-16.79,0,*5B
1515596733.03,51635,11.94,73150.3,-4.27,-16.55,-16.75,0,*57
1515596734.31,51636,11.94,73152.8,-4.27,-16.65,-16.75,0,*57
1515596735.58,51637,11.94,73156.3,-4.27,-16.65,-16.75,0,*56
1515596736.83,51638,11.94,73154.0,-4.27,-16.55,-16.75,0,*5A
1515596738.1,51639,11.94,73154.0,-4.27,-16.65,-16.75,0,*58
1515596739.39,51640,11.94,73150.8,-4.27,-16.65,-16.69,0,*5B
1515596740.64,51641,11.94,73154.3,-4.29,-16.69,-16.79,0,*59
1515596741.89,51642,11.94,73150.8,-4.27,-16.55,-16.75,0,*57
1515596743.16,51643,11.94,73152.0,-4.27,-16.65,-16.75,0,*55
1515596744.43,51644,11.94,73154.5,-4.27,-16.65,-16.83,0,*5B
1515596745.7,51645,11.94,73154.0,-4.27,-16.69,-16.83,0,*56
1515596746.92,51646,11.94,73154.5,-4.29,-16.75,-16.79,0,*53
1515596748.14,51647,11.94,73148.3,-4.29,-16.75,-16.79,0,*52
1515596749.36,51648,11.94,73144.5,-4.29,-16.75,-16.79,0,*5D
1515596750.58,51649,11.94,73144.8,-4.29,-16.75,-16.89,0,*53
1515596751.8,51650,11.94,73152.5,-4.29,-16.79,-16.79,0,*58
1515596753.01,51651,11.94,73150.5,-4.29,-16.79,-16.89,0,*56
1515596754.22,51652,11.94,73144.0,-4.33,-16.75,-16.93,0,*59
1515596755.47,51653,11.94,73140.8,-4.29,-16.79,-17.03,0,*57
1515596756.68,51654,11.94,73132.3,-4.29,-16.79,-16.93,0,*58
1515596757.9,51655,11.94,73126.3,-4.29,-16.75,-16.93,0,*55
1515596759.11,51656,11.94,73130.5,-4.33,-16.75,-16.89,0,*56
1515596760.33,51657,11.94,73138.8,-4.29,-16.75,-16.79,0,*53
1515596761.55,51658,11.94,73142.0,-4.29,-16.79,-16.89,0,*5F
1515596762.76,51659,11.94,73144.0,-4.33,-16.79,-16.89,0,*55
1515596763.98,51660,11.94,73142.3,-4.29,-16.79,-16.79,0,*5B
1515596765.2,51661,11.94,73130.5,-4.29,-16.75,-16.79,0,*56
1515596766.43,51662,11.94,73130.5,-4.29,-16.75,-16.79,0,*55
1515596767.65,51663,11.94,73138.3,-4.29,-16.75,-16.79,0,*54
1515596768.86,51664,11.94,73142.0,-4.29,-16.79,-16.89,0,*50
1515596770.08,51665,11.94,73144.3,-4.29,-16.75,-16.79,0,*52
1515596771.3,51666,11.94,73146.8,-4.29,-16.75,-16.89,0,*5E
1515596772.52,51667,11.94,73146.0,-4.29,-16.75,-16.79,0,*50
1515596773.74,51668,11.94,73142.5,-4.33,-16.75,-16.79,0,*54
1515596774.96,51669,11.94,73138.0,-4.29,-16.75,-16.89,0,*51
1515596776.17,51670,11.94,73142.0,-4.29,-16.79,-16.89,0,*55
1515596777.39,51671,11.94,73142.5,-4.33,-16.79,-16.79,0,*50
1515596778.6,51672,11.94,73142.0,-4.33,-16.75,-16.89,0,*50
1515596779.81,51673,11.94,73144.5,-4.33,-16.79,-16.89,0,*5D
1515596781.03,51674,11.94,73148.5,-4.29,-16.75,-16.79,0,*52
1515596782.25,51675,11.94,73146.5,-4.33,-16.75,-16.79,0,*58
1515596783.47,51676,11.94,73146.3,-4.33,-16.75,-16.79,0,*5B
1515596784.68,51677,11.94,73144.5,-4.33,-16.75,-16.89,0,*55
1515596785.9,51678,11.94,73148.5,-4.33,-16.75,-16.79,0,*55
1515596787.11,51679,11.94,73144.8,-4.33,-16.75,-16.89,0,*5B
1515596788.34,51680,11.94,73148.3,-4.29,-16.75,-16.79,0,*59
1515596789.55,51681,11.94,73146.0,-4.33,-16.79,-16.89,0,*50
1515596790.76,51682,11.94,73148.0,-4.33,-16.75,-16.89,0,*5F
1515596791.97,51683,11.94,73148.3,-4.33,-16.75,-16.89,0,*5E
1515596793.2,51684,11.94,73148.8,-4.29,-16.75,-16.79,0,*5D
1515596794.41,51685,11.94,73144.5,-4.33,-16.79,-16.79,0,*5B
1515596795.62,51686,11.94,73146.8,-4.33,-16.79,-16.89,0,*57
1515596796.84,51687,11.94,73148.3,-4.33,-16.89,-16.89,0,*59
1515596798.05,51688,11.94,73144.3,-4.33,-16.79,-16.89,0,*59
1515596799.26,51689,11.94,73142.0,-4.33,-16.79,-16.89,0,*58
1515596800.47,51690,11.94,73142.0,-4.33,-16.89,-16.89,0,*5F
1515596801.68,51691,11.94,73134.5,-4.33,-16.79,-16.89,0,*51
1515596802.89,51692,11.94,73136.0,-4.33,-16.89,-16.89,0,*5D
1515596804.1,51693,11.94,73134.8,-4.33,-16.89,-16.89,0,*5C
1515596805.31,51694,11.94,73134.5,-4.33,-16.89,-16.89,0,*5B
1515596806.53,51695,11.94,73136.3,-4.29,-16.89,-16.89,0,*51
1515596807.74,51696,11.94,73136.0,-4.33,-16.93,-16.89,0,*52
1515596808.95,51697,11.94,73140.8,-4.33,-16.93,-16.79,0,*5C
1515596810.16,51698,11.94,73138.8,-4.33,-16.93,-16.79,0,*53
1515596811.37,51699,11.94,73144.0,-4.33,-16.93,-16.75,0,*5E
1515596812.61,51700,11.94,73146.0,-4.33,-16.93,-16.69,0,*52
1515596813.83,51701,11.94,73140.8,-4.33,-16.89,-16.59,0,*5B
1515596815.04,51702,11.94,73140.8,-4.33,-16.89,-16.45,0,*55
1515596816.24,51703,11.94,73146.0,-4.33,-16.89,-16.45,0,*54
1515596817.48,51704,11.94,73140.3,-4.33,-16.89,-16.31,0,*50
1515596818.72,51705,11.94,73140.8,-4.33,-16.93,-16.27,0,*5D
1515596819.95,51706,11.94,73142.0,-4.33,-16.89,-16.27,0,*55
1515596821.19,51707,11.94,73138.8,-4.33,-16.89,-16.13,0,*53
1515596822.41,51708,11.94,73136.5,-4.33,-16.89,-16.03,0,*5D
1515596823.62,51709,11.94,73136.8,-4.33,-16.93,-15.99,0,*57
1515596824.83,51710,11.94,73138.0,-4.33,-16.89,-16.03,0,*54
1515596826.05,51711,11.94,73138.0,-4.29,-16.89,-15.99,0,*5E
1515596827.26,51712,11.94,73138.8,-4.33,-16.89,-16.03,0,*56
1515596828.47,51713,11.94,73136.8,-4.33,-16.89,-16.03,0,*57
1515596829.74,51714,11.94,73136.5,-4.35,-16.83,-16.09,0,*56
1515596830.98,51715,11.94,73136.5,-4.35,-16.93,-16.03,0,*5C
1515596832.24,51716,11.94,73132.5,-4.35,-16.93,-16.17,0,*5A
1515596833.5,51717,11.94,73136.3,-4.35,-16.93,-16.23,0,*5C
1515596834.75,51718,11.94,73132.5,-4.35,-16.93,-16.23,0,*53
1515596836.01,51719,11.94,73136.5,-4.35,-16.93,-16.23,0,*52
1515596837.25,51720,11.94,73138.5,-4.33,-16.89,-16.27,0,*51
1515596838.46,51721,11.94,73140.3,-4.33,-16.89,-16.41,0,*50
1515596839.67,51722,11.94,73138.0,-4.33,-16.93,-16.45,0,*5C
1515596840.88,51723,11.94,73136.3,-4.33,-16.93,-16.59,0,*50
1515596842.12,51724,11.94,73138.5,-4.35,-16.93,-16.75,0,*5F
1515596843.36,51725,11.94,73138.0,-4.35,-16.93,-16.79,0,*52
1515596844.6,51726,11.94,73136.8,-4.35,-16.93,-16.75,0,*5D
1515596845.81,51727,11.94,73136.3,-4.33,-16.93,-16.79,0,*56
1515596847.05,51728,11.94,73140.5,-4.33,-17.03,-16.89,0,*5E
1515596848.26,51729,11.94,73140.0,-4.33,-16.93,-16.79,0,*58
1515596849.46,51730,11.94,73138.0,-4.33,-16.93,-16.89,0,*5F
1515596850.7,51731,11.94,73136.0,-4.35,-16.97,-16.97,0,*53
1515596851.93,51732,11.94,73138.0,-4.35,-16.97,-16.97,0,*50
1515596853.17,51733,11.94,73140.0,-4.35,-16.97,-16.97,0,*51
1515596854.43,51734,11.94,73136.3,-4.35,-17.07,-16.97,0,*5E
1515596855.67,51735,11.94,73138.8,-4.33,-17.03,-16.93,0,*59
1515596856.94,51736,11.94,73138.8,-4.33,-17.03,-17.03,0,*52
1515596858.2,51737,11.94,73138.8,-4.35,-17.07,-16.97,0,*5D
1515596859.5,51738,11.94,73136.8,-4.35,-17.07,-17.07,0,*5A
1515596860.73,51739,11.94,73136.8,-4.37,-17.07,-16.97,0,*51
1515596862.02,51740,11.94,73136.8,-4.35,-17.07,-17.07,0,*55
1515596863.32,51741,11.94,73140.0,-4.35,-17.07,-17.07,0,*54
1515596864.58,51742,11.94,73142.0,-4.35,-17.07,-16.97,0,*5F
1515596865.88,51743,11.94,73142.5,-4.35,-17.07,-17.07,0,*56
1515596867.11,51744,11.94,73140.0,-4.35,-16.97,-16.97,0,*51
1515596868.41,51745,11.88,73134.0,-4.35,-17.07,-17.07,0,*50
1515596869.67,51746,11.94,73136.3,-4.37,-17.07,-17.07,0,*51
1515596870.9,51747,11.94,73142.8,-4.37,-17.07,-16.97,0,*58
1515596872.19,51748,11.94,73140.3,-4.35,-17.07,-17.11,0,*5A
1515596873.42,51749,11.94,73142.3,-4.37,-17.07,-16.97,0,*56
1515596874.64,51750,11.94,73136.5,-4.37,-17.07,-16.97,0,*5E
1515596875.9,51751,11.94,73142.0,-4.35,-17.11,-16.97,0,*5A
1515596877.17,51752,11.94,73140.8,-4.35,-16.97,-17.07,0,*5E
1515596878.4,51753,11.94,73138.3,-4.37,-17.07,-16.97,0,*5D
1515596879.69,51754,11.94,73142.3,-4.35,-17.11,-17.07,0,*57
1515596880.95,51755,11.94,73142.5,-4.37,-17.07,-17.11,0,*54
1515596882.23,51756,11.94,73146.3,-4.35,-17.11,-17.11,0,*52
1515596883.52,51757,11.94,73138.0,-4.35,-17.11,-17.07,0,*54
1515596884.77,51758,11.94,73140.0,-4.37,-17.11,-17.11,0,*5E
1515596886.06,51759,11.94,73146.8,-4.35,-17.21,-17.11,0,*5E
1515596887.32,51760,11.94,73144.5,-4.37,-17.25,-17.11,0,*52
1515596888.61,51761,11.94,73146.8,-4.35,-17.21,-17.11,0,*55
1515596889.86,51762,11.94,73146.5,-4.37,-17.21,-17.21,0,*57
1515596891.15,51763,11.94,73142.3,-4.35,-17.25,-17.21,0,*50
1515596892.4,51764,11.94,73144.0,-4.37,-17.21,-17.11,0,*52
1515596893.69,51765,11.88,73138.0,-4.35,-17.21,-17.11,0,*51
1515596894.95,51766,11.94,73140.5,-4.37,-17.21,-17.11,0,*50
1515596896.2,51767,11.94,73142.0,-4.37,-17.21,-17.11,0,*51
1515596897.45,51768,11.94,73144.8,-4.37,-17.25,-17.11,0,*5A
1515596898.72,51769,11.94,73140.3,-4.37,-17.21,-17.07,0,*58